1497880801.12,60648,21.44,74728.5,22.93,-19.71,-25.75,0,*40
1497880802.36,60649,21.44,74724.3,22.89,-19.95,-26.13,0,*43
1497880803.6,60650,21.44,74730.0,22.85,-19.51,-25.71,0,*48
1497880804.85,60651,21.44,74726.3,22.81,-19.75,-26.13,0,*4C
1497880806.11,60652,21.44,74728.5,22.81,-19.51,-25.55,0,*48
1497880807.36,60653,21.44,74730.3,22.79,-18.31,-23.95,0,*43
1497880808.56,60654,21.44,74726.5,22.79,-18.73,-24.35,0,*4F
1497880809.78,60655,21.44,74728.5,22.75,-18.55,-24.31,0,*42
1497880811.02,60656,21.5,74730.3,22.75,-18.21,-23.85,0,*4A
1497880812.25,60657,21.44,74728.0,22.73,-18.83,-24.31,0,*4D
1497880813.5,60658,21.44,74728.8,22.73,-18.73,-24.15,0,*4B
1497880814.76,60659,21.44,74728.5,22.71,-17.97,-23.23,0,*4F
1497880815.99,60660,21.44,74726.8,22.71,-19.75,-25.29,0,*4B
1497880817.21,60661,21.5,74730.3,22.67,-18.17,-23.29,0,*4E
1497880818.42,60662,21.44,74728.8,22.67,-18.45,-23.59,0,*4D
1497880819.65,60663,21.44,74730.0,22.67,-16.93,-21.67,0,*46
1497880820.88,60664,21.44,74728.3,22.71,-17.45,-22.37,0,*4A
1497880822.1,60665,21.44,74728.8,22.71,-18.83,-23.69,0,*44
1497880823.33,60666,21.44,74730.0,22.67,-16.97,-21.53,0,*40
1497880824.54,60667,21.44,74730.0,22.67,-17.49,-22.03,0,*45
1497880825.76,60668,21.44,74726.3,22.67,-18.89,-23.59,0,*47
1497880826.97,60669,21.44,74730.3,22.67,-19.95,-24.77,0,*41
1497880828.19,60670,21.44,74728.3,22.63,-20.15,-24.93,0,*45
1497880829.46,60671,21.44,74728.5,22.61,-19.41,-23.99,0,*40
1497880830.71,60672,21.44,74728.3,22.63,-18.93,-23.53,0,*49
1497880831.97,60673,21.44,74728.3,22.61,-18.99,-23.19,0,*4E
1497880833.25,60674,21.44,74730.5,22.61,-19.41,-23.49,0,*48
1497880834.47,60675,21.44,74730.0,22.59,-20.09,-24.41,0,*4B
1497880835.69,60676,21.44,74730.3,22.57,-20.29,-24.77,0,*41
1497880836.92,60677,21.44,74730.3,22.57,-20.89,-25.23,0,*4A
1497880838.16,60678,21.5,74730.8,22.53,-20.89,-25.13,0,*42
1497880839.41,60679,21.44,74730.0,22.53,-20.39,-24.67,0,*4A
1497880840.63,60680,21.44,74730.0,22.51,-18.89,-23.09,0,*41
1497880841.84,60681,21.44,74730.0,22.51,-19.95,-23.89,0,*44
1497880843.06,60682,21.44,74730.3,22.49,-19.99,-23.79,0,*4D
1497880844.3,60683,21.44,74728.3,22.49,-20.29,-24.11,0,*44
1497880845.58,60684,21.5,74730.3,22.49,-20.53,-24.41,0,*4B
1497880846.81,60685,21.44,74728.0,22.43,-21.57,-25.61,0,*46
1497880848.04,60686,21.5,74732.3,22.43,-21.03,-24.97,0,*4C
1497880849.33,60687,21.5,74730.8,22.41,-21.53,-25.55,0,*45
1497880850.54,60688,21.44,74728.3,22.39,-21.77,-25.65,0,*40
1497880851.79,60689,21.5,74730.0,22.37,-20.79,-24.47,0,*41
1497880853.02,60690,21.44,74728.5,22.35,-21.33,-25.09,0,*4F
1497880854.28,60691,21.44,74730.0,22.33,-21.97,-25.65,0,*4C
1497880855.51,60692,21.44,74730.3,22.31,-21.67,-25.23,0,*40
1497880856.73,60693,21.5,74728.0,22.29,-21.43,-24.77,0,*4E
1497880857.98,60694,21.44,74728.0,22.29,-20.89,-24.25,0,*49
1497880859.23,60695,21.5,74730.0,22.25,-20.99,-24.35,0,*44
1497880860.49,60696,21.44,74728.3,22.27,-19.85,-23.19,0,*4B
1497880861.72,60697,21.5,74730.0,22.27,-18.99,-22.17,0,*49
1497880862.98,60698,21.5,74728.8,22.27,-21.27,-24.83,0,*42
1497880864.21,60699,21.5,74730.0,22.25,-21.43,-24.61,0,*4F
1497880865.48,60700,21.44,74728.5,22.25,-20.49,-23.65,0,*46
1497880866.71,60701,21.5,74732.5,22.21,-20.73,-23.75,0,*4B
1497880867.96,60702,21.5,74734.0,22.21,-20.39,-23.53,0,*42
1497880869.19,60703,21.5,74730.8,22.21,-20.89,-23.89,0,*4F
1497880870.43,60704,21.5,74730.0,22.19,-19.81,-22.67,0,*40
1497880871.68,60705,21.44,74730.0,22.21,-19.65,-22.87,0,*4E
1497880872.91,60706,21.5,74732.8,22.25,-19.47,-22.27,0,*43
1497880874.17,60707,21.44,74730.8,22.21,-21.77,-24.83,0,*46
1497880875.42,60708,21.5,74730.8,22.19,-22.17,-25.19,0,*45
1497880876.67,60709,21.5,74730.3,22.17,-21.23,-24.11,0,*47
1497880877.89,60710,21.5,74730.0,22.17,-20.63,-23.29,0,*46
1497880879.14,60711,21.5,74730.0,22.15,-21.57,-24.35,0,*49
1497880880.41,60712,21.5,74734.0,22.15,-20.99,-23.69,0,*47
1497880881.64,60713,21.5,74732.8,22.15,-20.39,-22.87,0,*4D
1497880882.84,60714,21.5,74730.3,22.13,-20.89,-23.43,0,*4E
1497880884.09,60715,21.5,74730.5,22.13,-20.83,-23.33,0,*42
1497880885.31,60716,21.5,74732.5,22.13,-20.69,-23.19,0,*4D
1497880886.56,60717,21.5,74728.8,22.13,-21.27,-23.69,0,*40
1497880887.75,60718,21.5,74730.3,22.13,-21.39,-23.89,0,*4E
1497880888.98,60719,21.5,74734.3,22.13,-20.89,-23.23,0,*45
1497880890.2,60720,21.5,74732.5,22.13,-19.95,-22.21,0,*4B
1497880891.45,60721,21.5,74730.0,22.13,-20.19,-22.77,0,*47
1497880892.7,60722,21.5,74734.8,22.13,-19.65,-21.83,0,*4D
1497880893.9,60723,21.5,74730.8,22.13,-19.37,-21.63,0,*45
1497880895.15,60724,21.5,74732.3,22.15,-19.41,-21.47,0,*43
1497880896.38,60725,21.5,74734.0,22.13,-19.17,-20.99,0,*45
1497880897.66,60726,21.5,74732.3,22.15,-18.93,-20.83,0,*46
1497880898.89,60727,21.5,74732.8,22.15,-19.99,-21.93,0,*4C
1497880900.14,60728,21.5,74730.8,22.15,-19.85,-21.73,0,*40
1497880901.35,60729,21.5,74732.8,22.17,-20.09,-21.97,0,*47
1497880902.59,60730,21.5,74732.8,22.17,-20.63,-22.47,0,*4D
1497880903.81,60731,21.5,74732.8,22.17,-19.95,-21.83,0,*44
1497880905.01,60732,21.5,74734.5,22.17,-19.99,-21.73,0,*44
1497880906.24,60733,21.5,74734.0,22.17,-19.95,-21.57,0,*4F
1497880907.47,60734,21.5,74732.5,22.17,-19.71,-21.23,0,*41
1497880908.74,60735,21.5,74730.3,22.19,-20.15,-21.83,0,*4C
1497880909.98,60736,21.5,74730.5,22.17,-19.65,-20.93,0,*4C
1497880911.23,60737,21.5,74730.8,22.19,-19.51,-21.03,0,*4C
1497880912.46,60738,21.5,74732.5,22.21,-20.73,-22.27,0,*47
1497880913.74,60739,21.5,74732.0,22.19,-19.65,-21.03,0,*45
1497880914.96,60740,21.5,74734.5,22.17,-20.09,-21.67,0,*47
1497880916.18,60741,21.5,74730.3,22.19,-21.09,-22.63,0,*4E
1497880917.41,60742,21.5,74730.5,22.19,-20.63,-22.27,0,*40
1497880918.61,60743,21.5,74734.0,22.17,-19.71,-21.09,0,*49
1497880919.87,60744,21.5,74732.5,22.19,-19.27,-20.59,0,*47
1497880921.14,60745,21.5,74734.0,22.19,-19.17,-20.49,0,*44
1497880922.39,60746,21.5,74736.5,22.19,-19.37,-20.79,0,*46
1497880923.63,60747,21.5,74734.3,22.21,-19.37,-20.69,0,*4D
1497880924.89,60748,21.5,74728.3,22.25,-19.13,-20.49,0,*42
1497880926.17,60749,21.5,74734.8,22.21,-18.55,-19.81,0,*4A
1497880927.43,60750,21.5,74732.0,22.27,-18.93,-20.15,0,*49
1497880928.67,60751,21.5,74732.8,22.29,-19.85,-21.13,0,*47
1497880929.91,60752,21.5,74732.3,22.27,-20.39,-21.87,0,*4A
1497880931.13,60753,21.5,74730.0,22.27,-20.15,-21.47,0,*49
1497880932.37,60754,21.5,74732.5,22.27,-20.43,-21.83,0,*45
1497880933.58,60755,21.5,74730.0,22.27,-19.99,-21.17,0,*44
1497880934.8,60756,21.5,74732.8,22.27,-19.13,-20.39,0,*48
1497880936.01,60757,21.5,74732.8,22.29,-20.29,-21.73,0,*4B
1497880937.27,60758,21.5,74732.3,22.27,-20.83,-22.21,0,*4E
1497880938.52,60759,21.5,74732.0,22.25,-20.53,-21.93,0,*4A
1497880939.75,60760,21.5,74732.5,22.27,-20.99,-22.41,0,*48
1497880941.0,60761,21.5,74734.5,22.25,-20.99,-22.41,0,*4B
1497880942.23,60762,21.5,74732.3,22.21,-20.59,-22.07,0,*42
1497880943.48,60763,21.5,74734.3,22.21,-20.05,-21.53,0,*48
1497880944.71,60764,21.5,74734.8,22.21,-19.95,-21.63,0,*4F
1497880945.95,60765,21.5,74732.3,22.25,-19.17,-20.63,0,*41
1497880947.2,60766,21.5,74734.0,22.25,-19.61,-21.43,0,*40
1497880948.46,60767,21.5,74734.0,22.21,-20.25,-21.83,0,*43
1497880949.71,60768,21.5,74732.3,22.25,-21.33,-22.83,0,*4D
1497880950.98,60769,21.5,74730.8,22.21,-21.83,-23.53,0,*4F
1497880952.27,60770,21.5,74730.5,22.21,-21.83,-23.19,0,*49
1497880953.47,60771,21.5,74732.0,22.17,-20.89,-22.37,0,*4B
1497880954.7,60772,21.5,74728.8,22.17,-20.59,-21.97,0,*4C
1497880955.92,60773,21.5,74732.5,22.17,-21.57,-22.83,0,*44
1497880957.17,60774,21.5,74734.5,22.17,-20.49,-22.17,0,*40
1497880958.43,60775,21.5,74728.5,22.17,-21.87,-23.33,0,*45
1497880959.65,60776,21.5,74730.0,22.17,-22.03,-23.49,0,*44
1497880960.88,60777,21.5,74732.8,22.15,-21.73,-22.97,0,*41
1497880962.08,60778,21.5,74732.5,22.13,-22.11,-23.43,0,*47
1497880963.31,60779,21.5,74728.3,22.13,-21.67,-22.87,0,*4D
1497880964.59,60780,21.5,74732.8,22.11,-21.97,-23.23,0,*49
1497880965.87,60781,21.5,74730.8,22.11,-21.57,-22.77,0,*44
1497880967.13,60782,21.5,74734.0,22.11,-21.53,-22.67,0,*42
1497880968.34,60783,21.5,74732.3,22.09,-22.11,-23.13,0,*4D
1497880969.57,60784,21.5,74732.3,22.09,-21.97,-22.97,0,*4A
1497880970.79,60785,21.5,74732.3,22.09,-22.27,-23.29,0,*47
1497880972.04,60786,21.5,74732.5,22.05,-22.21,-23.33,0,*45
1497880973.26,60787,21.5,74728.0,22.05,-22.87,-23.99,0,*48
1497880974.52,60788,21.5,74732.5,22.03,-22.27,-23.23,0,*4A
1497880975.78,60789,21.5,74730.5,22.03,-21.83,-22.87,0,*49
1497880977.01,60790,21.5,74730.8,22.03,-21.13,-21.93,0,*4E
1497880978.24,60791,21.5,74734.0,22.03,-22.07,-22.93,0,*4A
1497880979.49,60792,21.5,74728.8,22.03,-21.53,-22.41,0,*44
1497880980.75,60793,21.5,74728.3,22.03,-21.13,-21.83,0,*4C
1497880981.98,60794,21.5,74730.8,22.03,-21.13,-21.93,0,*4A
1497880983.21,60795,21.5,74730.3,22.03,-21.63,-22.37,0,*41
1497880984.44,60796,21.5,74726.8,21.99,-22.67,-23.59,0,*4C
1497880985.7,60797,21.5,74728.0,21.99,-23.75,-24.41,0,*41
1497880986.95,60798,21.5,74732.0,21.97,-22.47,-23.19,0,*4A
1497880988.21,60799,21.5,74730.5,21.95,-23.65,-24.35,0,*41
1497880989.45,60800,21.5,74730.5,21.95,-23.39,-23.99,0,*46
1497880990.71,60801,21.5,74730.8,21.95,-24.67,-25.35,0,*4B
1497880992.0,60802,21.5,74732.8,21.91,-25.03,-25.55,0,*49
1497880993.22,60803,21.5,74730.5,21.89,-22.83,-23.29,0,*43
1497880994.45,60804,21.5,74728.3,21.87,-22.17,-22.41,0,*48
1497880995.65,60805,21.5,74728.3,21.89,-22.07,-22.53,0,*45
1497880996.88,60806,21.5,74730.3,21.87,-22.83,-23.23,0,*42
1497880998.11,60807,21.5,74732.8,21.87,-23.09,-23.53,0,*47
1497880999.34,60808,21.5,74728.8,21.87,-23.09,-23.65,0,*4D
1497881000.55,60809,21.5,74732.3,21.87,-22.67,-23.09,0,*4F
1497881001.78,60810,21.5,74728.3,21.87,-22.93,-23.33,0,*45
1497881003.0,60811,21.5,74734.3,21.83,-23.89,-24.11,0,*4D
1497881004.23,60812,21.5,74728.0,21.83,-23.23,-23.43,0,*4E
1497881005.44,60813,21.5,74728.0,21.83,-22.57,-22.87,0,*44
1497881006.67,60814,21.5,74730.5,21.81,-23.09,-23.39,0,*4F
1497881007.9,60815,21.5,74728.5,21.79,-23.13,-23.29,0,*43
1497881009.14,60816,21.5,74734.3,21.79,-23.29,-23.43,0,*45
1497881010.37,60817,21.5,74728.5,21.79,-22.63,-22.77,0,*4D
1497881011.58,60818,21.5,74732.0,21.79,-22.53,-22.63,0,*44
1497881012.8,60819,21.5,74730.8,21.79,-22.53,-22.63,0,*45
1497881014.0,60820,21.5,74730.8,21.75,-22.27,-22.11,0,*45
1497881015.2,60821,21.5,74728.0,21.75,-22.97,-22.87,0,*40
1497881016.43,60822,21.5,74732.0,21.75,-22.07,-21.87,0,*49
1497881017.65,60823,21.5,74730.3,21.75,-22.41,-22.21,0,*45
1497881018.85,60824,21.5,74730.5,21.79,-22.07,-22.07,0,*48
1497881020.1,60825,21.5,74732.0,21.75,-21.57,-21.33,0,*47
1497881021.3,60826,21.5,74730.5,21.75,-21.73,-21.47,0,*41
1497881022.56,60827,21.5,74730.0,21.79,-21.33,-20.83,0,*41
1497881023.81,60828,21.5,74730.5,21.81,-20.43,-20.15,0,*40
1497881025.02,60829,21.5,74730.3,21.83,-20.73,-20.29,0,*4F
1497881026.22,60830,21.5,74732.0,21.83,-20.43,-19.99,0,*45
1497881027.47,60831,21.5,74728.8,21.83,-21.23,-20.89,0,*48
1497881028.72,60832,21.5,74730.5,21.83,-21.83,-21.33,0,*41
1497881029.95,60833,21.5,74732.8,21.83,-21.47,-21.03,0,*4B
1497881031.2,60834,21.5,74728.3,21.85,-21.43,-20.83,0,*47
1497881032.46,60835,21.5,74728.0,21.85,-21.03,-20.25,0,*4E
1497881033.74,60836,21.5,74728.8,21.85,-21.57,-20.99,0,*4B
1497881034.96,60837,21.5,74732.0,21.85,-22.37,-21.73,0,*4A
1497881036.17,60838,21.5,74732.0,21.87,-20.89,-20.09,0,*4C
1497881037.4,60839,21.5,74730.5,21.87,-20.49,-19.71,0,*44
1497881038.63,60840,21.5,74730.3,21.89,-21.57,-20.73,0,*42
1497881039.83,60841,21.5,74730.3,21.87,-20.39,-19.47,0,*49
1497881041.03,60842,21.5,74728.8,21.89,-19.75,-18.83,0,*4F
1497881042.26,60843,21.5,74728.0,21.91,-19.47,-18.45,0,*4C
1497881043.49,60844,21.5,74734.5,21.93,-20.25,-19.31,0,*45
1497881044.77,60845,21.56,74732.5,21.95,-21.03,-20.35,0,*49
1497881046.0,60846,21.5,74732.0,21.95,-22.37,-21.43,0,*4E
1497881047.24,60847,21.5,74732.5,21.93,-22.77,-21.93,0,*40
1497881048.47,60848,21.5,74728.8,21.93,-22.67,-21.67,0,*45
1497881049.67,60849,21.5,74732.8,21.93,-22.67,-21.63,0,*40
1497881050.9,60850,21.5,74732.8,21.93,-21.63,-20.53,0,*4D
1497881052.13,60851,21.5,74734.3,21.91,-22.11,-21.09,0,*46
1497881053.39,60852,21.5,74730.3,21.91,-21.87,-20.93,0,*4B
1497881054.63,60853,21.5,74732.0,21.93,-21.03,-19.95,0,*48
1497881055.91,60854,21.5,74734.8,21.91,-22.47,-21.53,0,*4F
1497881057.12,60855,21.5,74732.0,21.93,-21.47,-20.39,0,*42
1497881058.35,60856,21.5,74734.0,21.93,-22.53,-21.57,0,*4E
1497881059.59,60857,21.5,74734.0,21.93,-22.77,-21.63,0,*4E
1497881060.82,60858,21.5,74732.8,21.91,-22.57,-21.73,0,*40
1497881062.05,60859,21.56,74734.5,21.91,-22.03,-21.17,0,*42
1497881063.31,60860,21.5,74732.0,21.93,-21.27,-20.49,0,*45
1497881064.57,60861,21.5,74734.0,21.93,-20.49,-19.61,0,*4D
1497881065.77,60862,21.5,74728.8,21.93,-20.69,-19.95,0,*47
1497881067.0,60863,21.5,74734.3,21.93,-20.25,-19.31,0,*40
1497881068.24,60864,21.5,74728.8,21.97,-21.23,-20.59,0,*40
1497881069.5,60865,21.5,74734.3,21.95,-21.77,-20.99,0,*4E
1497881070.7,60866,21.5,74728.3,21.97,-20.43,-19.71,0,*45
1497881071.95,60867,21.5,74734.3,21.95,-20.19,-19.47,0,*4C
1497881073.2,60868,21.5,74732.5,21.95,-20.35,-19.75,0,*4C
1497881074.4,60869,21.5,74728.5,21.97,-22.67,-22.03,0,*43
1497881075.65,60870,21.5,74730.0,21.99,-21.39,-20.79,0,*42
1497881076.9,60871,21.5,74728.8,21.97,-20.99,-20.35,0,*4E
1497881078.14,60872,21.5,74732.0,21.97,-21.23,-20.93,0,*41
1497881079.37,60873,21.5,74728.0,21.97,-21.27,-20.93,0,*44
1497881080.61,60874,21.5,74732.0,21.99,-20.89,-20.43,0,*45
1497881081.84,60875,21.5,74732.0,21.97,-19.91,-19.57,0,*46
1497881083.08,60876,21.56,74732.5,21.97,-20.19,-19.85,0,*40
1497881084.34,60877,21.5,74732.5,21.99,-21.33,-21.09,0,*49
1497881085.57,60878,21.5,74728.8,21.99,-21.09,-20.63,0,*42
1497881086.82,60879,21.5,74732.5,21.99,-20.53,-20.29,0,*43
1497881088.06,60880,21.5,74734.5,21.99,-20.63,-20.43,0,*4A
1497881089.31,60881,21.5,74734.8,21.99,-20.15,-19.99,0,*47
1497881090.55,60882,21.56,74732.3,21.99,-20.59,-20.43,0,*41
1497881091.81,60883,21.5,74734.8,21.95,-21.17,-21.03,0,*42
1497881093.03,60884,21.5,74732.0,21.97,-20.19,-20.29,0,*41
1497881094.24,60885,21.5,74732.8,21.97,-19.51,-19.51,0,*43
1497881095.47,60886,21.5,74734.0,21.97,-20.79,-20.93,0,*44
1497881096.73,60887,21.56,74734.3,21.99,-21.47,-21.87,0,*43
1497881097.96,60888,21.56,74732.8,21.97,-19.61,-19.99,0,*49
1497881099.19,60889,21.56,74734.5,21.97,-19.91,-20.19,0,*45
1497881100.39,60890,21.5,74730.8,21.97,-19.07,-19.51,0,*44
1497881101.62,60891,21.5,74732.5,21.99,-18.73,-19.47,0,*4E
1497881102.87,60892,21.56,74734.0,21.99,-19.17,-19.81,0,*44
1497881104.1,60893,21.56,74732.8,22.03,-20.73,-21.47,0,*4C
1497881105.34,60894,21.5,74728.0,21.99,-19.95,-20.73,0,*4F
1497881106.56,60895,21.56,74734.8,21.99,-20.25,-21.09,0,*43
1497881107.79,60896,21.5,74730.0,21.99,-20.25,-21.39,0,*43
1497881109.05,60897,21.56,74732.0,21.99,-20.59,-21.83,0,*48
1497881110.31,60898,21.5,74732.0,21.99,-20.59,-21.57,0,*4E
1497881111.57,60899,21.56,74734.0,21.99,-18.93,-20.09,0,*48
1497881112.8,60900,21.56,74732.0,21.97,-18.17,-19.41,0,*4D
1497881114.03,60901,21.5,74732.0,21.97,-19.23,-20.59,0,*49
1497881115.25,60902,21.5,74728.3,21.99,-20.29,-21.73,0,*4D
1497881116.51,60903,21.5,74728.8,22.03,-19.51,-20.99,0,*4C
1497881117.77,60904,21.56,74734.3,22.03,-19.03,-20.49,0,*41
1497881119.0,60905,21.5,74726.8,21.99,-20.73,-22.27,0,*47
1497881120.23,60906,21.5,74730.8,21.99,-21.39,-22.97,0,*40
1497881121.46,60907,21.5,74730.8,21.97,-20.69,-22.31,0,*47
1497881122.68,60908,21.5,74730.8,21.97,-20.19,-21.63,0,*4B
1497881123.91,60909,21.56,74730.3,21.97,-19.61,-21.39,0,*40
1497881125.14,60910,21.5,74728.5,21.97,-19.41,-20.93,0,*4B
1497881126.43,60911,21.5,74730.3,21.95,-21.67,-23.33,0,*4E
1497881127.63,60912,21.56,74728.8,21.97,-21.13,-22.67,0,*4C
1497881128.88,60913,21.56,74734.0,21.95,-21.27,-22.87,0,*46
1497881130.12,60914,21.56,74728.3,21.93,-22.57,-24.21,0,*49
1497881131.38,60915,21.56,74728.3,21.91,-20.79,-22.27,0,*44
1497881132.58,60916,21.5,74728.3,21.93,-20.63,-22.11,0,*4B
1497881133.81,60917,21.5,74728.5,21.93,-19.85,-21.17,0,*4D
1497881135.09,60918,21.56,74730.8,21.95,-20.53,-21.97,0,*4D
1497881136.34,60919,21.5,74728.5,21.93,-21.27,-22.73,0,*41
1497881137.63,60920,21.56,74728.3,21.91,-21.83,-23.23,0,*43
1497881138.89,60921,21.56,74730.5,21.91,-21.83,-23.13,0,*41
1497881140.09,60922,21.56,74734.3,21.87,-22.11,-23.39,0,*45
1497881141.29,60923,21.5,74728.8,21.89,-22.63,-24.05,0,*47
1497881142.51,60924,21.56,74728.8,21.87,-22.07,-23.23,0,*4F
1497881143.77,60925,21.56,74730.5,21.85,-21.33,-22.57,0,*4A
1497881145.02,60926,21.56,74730.8,21.83,-21.97,-23.29,0,*49
1497881146.26,60927,21.56,74730.8,21.83,-21.97,-23.29,0,*48
1497881147.5,60928,21.56,74732.3,21.85,-21.73,-23.09,0,*49
1497881148.72,60929,21.56,74734.3,21.83,-22.03,-23.29,0,*48
1497881149.96,60930,21.5,74730.8,21.83,-21.53,-22.93,0,*46
1497881151.18,60931,21.56,74732.3,21.83,-21.63,-22.77,0,*4E
1497881152.39,60932,21.56,74734.0,21.83,-20.69,-21.77,0,*45
1497881153.62,60933,21.56,74730.8,21.83,-20.43,-21.53,0,*4A
1497881154.82,60934,21.56,74732.3,21.83,-21.63,-22.87,0,*44
1497881156.05,60935,21.56,74728.5,21.83,-22.11,-23.29,0,*46
1497881157.28,60936,21.56,74730.8,21.83,-20.69,-21.83,0,*4A
1497881158.5,60937,21.56,74732.3,21.83,-21.97,-23.39,0,*48
1497881159.73,60938,21.56,74728.5,21.83,-21.87,-23.13,0,*4E
1497881160.96,60939,21.56,74728.3,21.83,-19.99,-21.33,0,*4B
1497881162.22,60940,21.56,74732.3,21.85,-19.91,-21.23,0,*4A
1497881163.43,60941,21.56,74728.5,21.83,-20.43,-21.77,0,*49
1497881164.69,60942,21.56,74732.3,21.83,-21.23,-22.77,0,*4E
1497881165.95,60943,21.56,74730.8,21.83,-21.03,-22.47,0,*4E
1497881167.17,60944,21.56,74728.5,21.81,-20.09,-21.63,0,*45
1497881168.4,60945,21.56,74730.0,21.83,-20.49,-22.03,0,*47
1497881169.67,60946,21.56,74732.3,21.85,-20.35,-21.83,0,*42
1497881170.89,60947,21.56,74732.0,21.83,-20.83,-22.41,0,*45
1497881172.11,60948,21.56,74732.5,21.83,-19.81,-21.47,0,*47
1497881173.31,60949,21.56,74726.8,21.83,-20.69,-22.41,0,*4F
1497881174.52,60950,21.56,74732.3,21.83,-20.93,-22.63,0,*42
1497881175.72,60951,21.56,74730.8,21.83,-20.63,-22.37,0,*4D
1497881176.92,60952,21.56,74728.5,21.83,-21.09,-22.87,0,*48
1497881178.14,60953,21.56,74730.0,21.81,-20.69,-22.41,0,*46
1497881179.4,60954,21.56,74732.3,21.81,-19.61,-21.47,0,*46
1497881180.65,60955,21.56,74730.5,21.81,-19.85,-21.63,0,*4B
1497881181.86,60956,21.56,74730.5,21.83,-18.73,-20.39,0,*4C
1497881183.12,60957,21.56,74732.0,21.83,-17.97,-19.65,0,*4B
1497881184.37,60958,21.56,74730.0,21.85,-17.73,-19.31,0,*49
1497881185.59,60959,21.56,74728.3,21.89,-17.41,-19.07,0,*40
1497881186.82,60960,21.56,74728.3,21.89,-18.01,-19.71,0,*40
1497881188.05,60961,21.56,74732.0,21.91,-18.79,-20.69,0,*44
1497881189.25,60962,21.56,74730.0,21.93,-20.63,-22.41,0,*4D
1497881190.49,60963,21.56,74730.8,21.89,-20.99,-22.87,0,*48
1497881191.71,60964,21.56,74732.3,21.87,-20.49,-22.07,0,*44
1497881192.92,60965,21.56,74730.5,21.87,-20.25,-21.77,0,*4B
1497881194.12,60966,21.56,74730.5,21.87,-20.63,-22.37,0,*4D
1497881195.37,60967,21.56,74732.3,21.87,-21.33,-23.03,0,*4E
1497881196.6,60968,21.56,74732.3,21.85,-21.43,-22.83,0,*4D
1497881197.83,60969,21.56,74728.3,21.83,-20.69,-21.87,0,*44
1497881199.07,60970,21.56,74730.0,21.83,-19.31,-20.43,0,*42
1497881200.3,60971,21.56,74730.3,21.83,-20.15,-21.39,0,*43
1497881201.58,60972,21.56,74732.0,21.85,-19.41,-20.49,0,*4B
1497881202.81,60973,21.56,74730.3,21.85,-19.03,-19.91,0,*43
1497881204.03,60974,21.56,74730.0,21.85,-18.83,-19.71,0,*43
1497881205.25,60975,21.56,74732.0,21.87,-19.13,-20.05,0,*41
1497881206.48,60976,21.56,74732.8,21.87,-20.19,-20.89,0,*46
1497881207.71,60977,21.56,74734.5,21.87,-20.05,-20.79,0,*45
1497881208.94,60978,21.56,74730.8,21.89,-19.91,-20.49,0,*40
1497881210.17,60979,21.56,74732.3,21.87,-21.43,-22.21,0,*47
1497881211.41,60980,21.56,74730.0,21.85,-20.25,-20.79,0,*4D
1497881212.62,60981,21.56,74732.8,21.87,-20.09,-20.63,0,*4B
1497881213.87,60982,21.56,74728.8,21.85,-20.09,-20.49,0,*42
1497881215.1,60983,21.56,74730.5,21.87,-19.95,-20.35,0,*45
1497881216.31,60984,21.56,74728.3,21.87,-20.09,-20.63,0,*4E
1497881217.54,60985,21.56,74734.5,21.87,-19.91,-20.35,0,*47
1497881218.76,60986,21.56,74728.3,21.87,-19.81,-20.09,0,*4A
1497881219.96,60987,21.56,74732.5,21.87,-20.09,-20.39,0,*42
1497881221.22,60988,21.56,74732.3,21.87,-20.35,-20.53,0,*4E
1497881222.45,60989,21.56,74732.8,21.89,-20.19,-20.59,0,*45
1497881223.7,60990,21.56,74734.0,21.87,-20.49,-20.79,0,*44
1497881224.91,60991,21.56,74732.8,21.87,-19.95,-20.63,0,*45
1497881226.12,60992,21.56,74732.8,21.87,-19.47,-19.75,0,*44
1497881227.35,60993,21.56,74732.3,21.87,-18.83,-19.27,0,*4B
1497881228.55,60994,21.56,74730.5,21.87,-19.47,-19.75,0,*42
1497881229.79,60995,21.56,74730.8,21.87,-19.57,-19.71,0,*46
1497881231.02,60996,21.56,74730.3,21.89,-18.99,-19.41,0,*4B
1497881232.28,60997,21.56,74732.3,21.89,-20.99,-21.27,0,*4A
1497881233.54,60998,21.56,74734.0,21.89,-21.23,-21.53,0,*46
1497881234.79,60999,21.56,74732.8,21.89,-20.79,-20.99,0,*4E
1497881236.02,61000,21.56,74734.3,21.87,-20.63,-21.03,0,*41
1497881237.23,61001,21.56,74730.5,21.89,-19.75,-19.99,0,*4B
1497881238.46,61002,21.56,74734.0,21.87,-19.91,-20.19,0,*4E
1497881239.69,61003,21.56,74730.0,21.89,-19.51,-19.85,0,*42
1497881240.92,61004,21.56,74732.3,21.89,-19.37,-19.85,0,*45
1497881242.13,61005,21.56,74734.5,21.87,-21.77,-22.37,0,*44
1497881243.33,61006,21.56,74734.5,21.87,-21.13,-21.47,0,*41
1497881244.53,61007,21.56,74732.5,21.87,-22.07,-22.53,0,*40
1497881245.78,61008,21.56,74732.8,21.85,-21.77,-22.21,0,*4C
1497881247.03,61009,21.56,74732.8,21.85,-21.63,-21.97,0,*46
1497881248.24,61010,21.56,74732.0,21.83,-20.93,-21.39,0,*42
1497881249.44,61011,21.56,74732.0,21.83,-20.93,-21.47,0,*4A
1497881250.67,61012,21.56,74732.8,21.83,-19.51,-19.81,0,*4C
1497881251.94,61013,21.56,74730.0,21.85,-18.89,-19.31,0,*44
1497881253.17,61014,21.56,74732.3,21.87,-19.03,-19.31,0,*42
1497881254.4,61015,21.56,74734.8,21.87,-18.99,-19.41,0,*46
1497881255.61,61016,21.56,74732.5,21.89,-18.83,-19.13,0,*47
1497881256.87,61017,21.56,74730.8,21.89,-19.57,-19.85,0,*41
1497881258.09,61018,21.56,74732.5,21.93,-19.81,-20.09,0,*40
1497881259.33,61019,21.56,74732.5,21.91,-19.95,-20.29,0,*44
1497881260.59,61020,21.56,74730.0,21.91,-19.81,-20.15,0,*44
1497881261.85,61021,21.56,74732.8,21.91,-19.81,-20.25,0,*46
1497881263.07,61022,21.56,74734.8,21.93,-19.81,-20.09,0,*49
1497881264.27,61023,21.56,74728.3,21.93,-20.09,-20.29,0,*40
1497881265.5,61024,21.56,74732.0,21.93,-20.49,-20.63,0,*4D
1497881266.75,61025,21.56,74734.0,21.93,-20.19,-20.35,0,*4A
1497881268.0,61026,21.56,74728.0,21.95,-20.09,-20.35,0,*4E
1497881269.28,61027,21.56,74732.0,21.95,-20.35,-20.53,0,*40
1497881270.57,61028,21.56,74732.8,21.95,-20.83,-20.99,0,*44
1497881271.82,61029,21.56,74732.3,21.95,-20.19,-20.25,0,*41
1497881273.06,61030,21.56,74732.5,21.95,-19.91,-20.09,0,*4D
1497881274.32,61031,21.56,74734.3,21.95,-19.65,-19.75,0,*46
1497881275.55,61032,21.56,74732.5,21.95,-18.83,-18.73,0,*4B
1497881276.78,61033,21.56,74734.0,21.99,-18.73,-18.73,0,*49
1497881278.04,61034,21.56,74730.3,22.03,-18.83,-18.89,0,*44
1497881279.29,61035,21.56,74732.5,22.05,-19.31,-19.31,0,*49
1497881280.52,61036,21.56,74730.0,22.05,-18.59,-18.73,0,*42
1497881281.78,61037,21.56,74732.5,22.07,-19.27,-19.13,0,*4E
1497881283.06,61038,21.56,74728.3,22.07,-20.79,-20.83,0,*43
1497881284.34,61039,21.56,74734.5,22.07,-21.23,-21.27,0,*43
1497881285.63,61040,21.56,74730.5,22.07,-21.23,-21.23,0,*49
1497881286.88,61041,21.56,74730.3,22.07,-20.99,-21.09,0,*40
1497881288.16,61042,21.56,74730.5,22.07,-23.29,-23.49,0,*4D
1497881289.38,61043,21.56,74728.3,22.05,-23.69,-23.75,0,*45
1497881290.61,61044,21.56,74728.8,22.03,-23.59,-23.59,0,*49
1497881291.89,61045,21.56,74728.0,22.03,-21.33,-21.27,0,*4D
1497881293.12,61046,21.56,74730.3,21.99,-23.59,-23.79,0,*49
1497881294.41,61047,21.56,74732.3,21.99,-25.03,-25.03,0,*4A
1497881295.61,61048,21.56,74732.8,21.93,-22.93,-22.87,0,*4A
1497881296.87,61049,21.56,74732.3,21.93,-23.19,-23.23,0,*47
1497881298.08,61050,21.56,74728.5,21.93,-22.27,-22.11,0,*43
1497881299.37,61051,21.56,74732.8,21.91,-21.87,-21.87,0,*45